Stündliche Wetter Abramiha

Heute, 21 Juni, Montag

Zeit Temperatur Niederschläge Wind Luftdruck Luftfeuchtigkeit
00:00 +20°C° 0 mm 2 m/S 750 mmHg 85%
01:00 +21°C° 0 mm 1 m/S 750 mmHg 87%
02:00 +21°C° 0 mm 1 m/S 750 mmHg 88%
03:00 +22°C° 0 mm 1 m/S 750 mmHg 87%
04:00 +22°C° 0 mm 1 m/S 750 mmHg 86%
05:00 +23°C° 0 mm 1 m/S 750 mmHg 84%
06:00 +25°C° 0 mm 1 m/S 751 mmHg 76%
07:00 +27°C° 0 mm 1 m/S 751 mmHg 68%
08:00 +29°C° 0 mm 1 m/S 751 mmHg 60%
09:00 +30°C° 0 mm 1 m/S 751 mmHg 55%
10:00 +31°C° 0 mm 1 m/S 751 mmHg 50%
11:00 +32°C° 0 mm 1 m/S 751 mmHg 45%
12:00 +32°C° 0 mm 1 m/S 751 mmHg 44%
13:00 +32°C° 0 mm 1 m/S 750 mmHg 42%
14:00 +33°C° 0 mm 1 m/S 750 mmHg 40%
15:00 +32°C° 0 mm 1 m/S 750 mmHg 45%
16:00 +32°C° 0 mm 2 m/S 750 mmHg 50%
17:00 +31°C° 0 mm 2 m/S 750 mmHg 55%
18:00 +29°C° 0 mm 2 m/S 750 mmHg 61%
19:00 +28°C° 0 mm 2 m/S 750 mmHg 67%
20:00 +26°C° 0 mm 2 m/S 750 mmHg 73%
21:00 +25°C° 0 mm 1 m/S 750 mmHg 75%
22:00 +24°C° 0 mm 1 m/S 750 mmHg 77%
23:00 +22°C° 0 mm 1 m/S 750 mmHg 79%

Morgen, 22 Juni, Dienstag

Zeit Temperatur Niederschläge Wind Luftdruck Luftfeuchtigkeit
00:00 +22°C° 0.1 mm 1 m/S 750 mmHg 80%
01:00 +21°C° 0.1 mm 1 m/S 751 mmHg 82%
02:00 +21°C° 0.1 mm 1 m/S 751 mmHg 83%
03:00 +21°C° 0 mm 1 m/S 751 mmHg 83%
04:00 +22°C° 0 mm 1 m/S 751 mmHg 83%
05:00 +22°C° 0 mm 1 m/S 751 mmHg 83%
06:00 +24°C° 0 mm 1 m/S 751 mmHg 76%
07:00 +25°C° 0 mm 2 m/S 751 mmHg 69%
08:00 +27°C° 0 mm 2 m/S 751 mmHg 62%
09:00 +28°C° 0 mm 2 m/S 751 mmHg 55%
10:00 +30°C° 0 mm 2 m/S 751 mmHg 49%
11:00 +31°C° 0 mm 2 m/S 751 mmHg 42%
12:00 +32°C° 0 mm 2 m/S 751 mmHg 40%
13:00 +34°C° 0 mm 2 m/S 751 mmHg 39%
14:00 +34°C° 0 mm 2 m/S 750 mmHg 37%
15:00 +34°C° 0 mm 2 m/S 750 mmHg 41%
16:00 +34°C° 0 mm 2 m/S 750 mmHg 44%
17:00 +32°C° 0 mm 2 m/S 750 mmHg 48%
18:00 +30°C° 0 mm 2 m/S 750 mmHg 56%
19:00 +28°C° 0 mm 2 m/S 750 mmHg 64%
20:00 +26°C° 0 mm 2 m/S 750 mmHg 71%
21:00 +25°C° 0 mm 2 m/S 750 mmHg 73%
22:00 +24°C° 0 mm 2 m/S 750 mmHg 75%
23:00 +23°C° 0 mm 2 m/S 750 mmHg 76%

übermorgen, 23 Juni, Mittwoch

Zeit Temperatur Niederschläge Wind Luftdruck Luftfeuchtigkeit
00:00 +21°C° 0 mm 2 m/S 750 mmHg 78%
01:00 +20°C° 0 mm 2 m/S 751 mmHg 80%
02:00 +20°C° 0 mm 2 m/S 751 mmHg 83%
03:00 +20°C° 0 mm 2 m/S 751 mmHg 82%
04:00 +21°C° 0 mm 2 m/S 751 mmHg 82%
05:00 +23°C° 0 mm 2 m/S 751 mmHg 82%
06:00 +25°C° 0 mm 2 m/S 751 mmHg 75%
07:00 +26°C° 0 mm 2 m/S 751 mmHg 69%
08:00 +28°C° 0 mm 2 m/S 751 mmHg 62%
09:00 +30°C° 0 mm 2 m/S 751 mmHg 57%
10:00 +31°C° 0 mm 2 m/S 751 mmHg 51%
11:00 +34°C° 0 mm 3 m/S 751 mmHg 45%
12:00 +34°C° 0 mm 3 m/S 751 mmHg 42%
13:00 +35°C° 0 mm 3 m/S 751 mmHg 39%
14:00 +35°C° 0 mm 3 m/S 751 mmHg 36%
15:00 +35°C° 0 mm 2 m/S 751 mmHg 39%
16:00 +35°C° 0 mm 2 m/S 751 mmHg 42%
17:00 +34°C° 0 mm 2 m/S 751 mmHg 44%
18:00 +31°C° 0 mm 2 m/S 750 mmHg 52%
19:00 +29°C° 0 mm 2 m/S 750 mmHg 60%
20:00 +26°C° 0 mm 2 m/S 750 mmHg 69%
21:00 +26°C° 0 mm 2 m/S 750 mmHg 70%
22:00 +25°C° 0 mm 2 m/S 750 mmHg 71%
23:00 +24°C° 0 mm 2 m/S 750 mmHg 73%

24 Juni, Donnerstag

Zeit Temperatur Niederschläge Wind Luftdruck Luftfeuchtigkeit
00:00 +23°C° 0 mm 2 m/S 750 mmHg 75%
01:00 +23°C° 0 mm 2 m/S 750 mmHg 77%
02:00 +21°C° 0 mm 2 m/S 751 mmHg 79%
03:00 +23°C° 0 mm 2 m/S 751 mmHg 79%
04:00 +23°C° 0 mm 2 m/S 750 mmHg 79%
05:00 +24°C° 0 mm 2 m/S 750 mmHg 79%
06:00 +26°C° 0 mm 2 m/S 750 mmHg 71%
07:00 +28°C° 0 mm 2 m/S 750 mmHg 63%
08:00 +30°C° 0 mm 2 m/S 750 mmHg 55%
09:00 +31°C° 0 mm 2 m/S 750 mmHg 50%
10:00 +34°C° 0 mm 2 m/S 750 mmHg 45%
11:00 +35°C° 0 mm 2 m/S 750 mmHg 40%
12:00 +35°C° 0 mm 2 m/S 750 mmHg 38%
13:00 +36°C° 0 mm 2 m/S 750 mmHg 36%
14:00 +36°C° 0 mm 2 m/S 749 mmHg 34%
15:00 +36°C° 0 mm 2 m/S 749 mmHg 37%
16:00 +35°C° 0 mm 2 m/S 749 mmHg 40%
17:00 +35°C° 0 mm 2 m/S 749 mmHg 43%
18:00 +31°C° 0 mm 2 m/S 748 mmHg 52%
19:00 +28°C° 0 mm 2 m/S 748 mmHg 61%
20:00 +26°C° 0 mm 1 m/S 748 mmHg 71%
21:00 +24°C° 0.1 mm 2 m/S 749 mmHg 77%
22:00 +21°C° 0.1 mm 2 m/S 749 mmHg 83%
23:00 +19°C° 0.1 mm 2 m/S 749 mmHg 89%

25 Juni, Freitag

Zeit Temperatur Niederschläge Wind Luftdruck Luftfeuchtigkeit
00:00 +20°C° 0 mm 1 m/S 749 mmHg 90%
01:00 +20°C° 0 mm 1 m/S 748 mmHg 92%
02:00 +17°C° 0 mm 0 m/S 748 mmHg 93%
03:00 +18°C° 0 mm 0 m/S 748 mmHg 92%
04:00 +21°C° 0 mm 1 m/S 748 mmHg 90%
05:00 +22°C° 0 mm 1 m/S 748 mmHg 88%
06:00 +23°C° 0 mm 1 m/S 748 mmHg 81%
07:00 +23°C° 0 mm 0 m/S 748 mmHg 73%
08:00 +25°C° 0 mm 0 m/S 748 mmHg 66%
09:00 +28°C° 0 mm 1 m/S 748 mmHg 60%
10:00 +30°C° 0 mm 1 m/S 747 mmHg 55%
11:00 +31°C° 0 mm 1 m/S 747 mmHg 49%
12:00 +32°C° 0 mm 1 m/S 747 mmHg 46%
13:00 +34°C° 0 mm 2 m/S 747 mmHg 44%
14:00 +34°C° 0 mm 2 m/S 747 mmHg 41%
15:00 +31°C° 0.2 mm 3 m/S 746 mmHg 49%
16:00 +29°C° 0.2 mm 3 m/S 746 mmHg 56%
17:00 +27°C° 0.2 mm 4 m/S 745 mmHg 64%
18:00 +25°C° 2 mm 4 m/S 745 mmHg 75%
19:00 +22°C° 2 mm 3 m/S 745 mmHg 85%
20:00 +20°C° 2 mm 3 m/S 746 mmHg 95%
21:00 +19°C° 0 mm 2 m/S 745 mmHg 95%
22:00 +18°C° 0 mm 2 m/S 745 mmHg 95%
23:00 +18°C° 0 mm 2 m/S 745 mmHg 95%

26 Juni, Samstag

Zeit Temperatur Niederschläge Wind Luftdruck Luftfeuchtigkeit
00:00 +18°C° 0 mm 2 m/S 744 mmHg 95%
01:00 +18°C° 0 mm 1 m/S 744 mmHg 95%
02:00 +18°C° 0 mm 1 m/S 744 mmHg 95%
03:00 +19°C° 0 mm 1 m/S 744 mmHg 95%
04:00 +19°C° 0 mm 1 m/S 744 mmHg 94%
05:00 +19°C° 0 mm 2 m/S 744 mmHg 94%
06:00 +21°C° 0 mm 2 m/S 743 mmHg 86%
07:00 +24°C° 0 mm 2 m/S 743 mmHg 78%
08:00 +26°C° 0 mm 3 m/S 743 mmHg 70%
09:00 +28°C° 0 mm 3 m/S 743 mmHg 63%
10:00 +30°C° 0 mm 3 m/S 742 mmHg 57%
11:00 +31°C° 0 mm 3 m/S 742 mmHg 50%
12:00 +33°C° 0 mm 4 m/S 742 mmHg 46%
13:00 +34°C° 0 mm 4 m/S 741 mmHg 41%
14:00 +35°C° 0 mm 4 m/S 741 mmHg 37%
15:00 +34°C° 0 mm 4 m/S 740 mmHg 40%
16:00 +34°C° 0 mm 4 m/S 740 mmHg 43%
17:00 +33°C° 0 mm 3 m/S 739 mmHg 45%
18:00 +29°C° 0.4 mm 4 m/S 739 mmHg 58%
19:00 +26°C° 0.4 mm 4 m/S 739 mmHg 71%
20:00 +22°C° 0.4 mm 4 m/S 739 mmHg 84%
21:00 +21°C° 1 mm 3 m/S 739 mmHg 88%
22:00 +19°C° 1 mm 2 m/S 739 mmHg 92%
23:00 +18°C° 1 mm 2 m/S 740 mmHg 97%
Mehr zeigen

Wir brauchen deine Erlaubnis

Meteoprog und unser Service Anbieter werden persönliche Daten aufbewahren, so wie Cookies, Geräte Bezeichnung oder ähnliche Technologien von deinem Gerät und Prozess, so wie Persönliche Daten Inhalte und Werbungen, genauso wie social Media und den Verkehr zu analysieren.

  • Aufbewahrung und/oder Zugang zu deiner Geräte Informationen.

    Cookies, Geräte Bezeichnung oder andere Informationen, können aufbewahrt oder Zugang zu deinem Gerät erhalten, für den Grund, der oben angegeben wird.

  • Personalisierte Werbung und Inhalte, Messungen, Einblick in das Publikum und Produkt Entwicklung.

    Werbungen und Inhalte können personalisiert werden, basierend auf ein Profil. Mehr Daten können besser personalisierte Werbungen und Inhalte hinzufügen. Werbung und Inhalte können gezeigt und gemessen werden. Einblicke über das Publikum, welche die Werbung gesehen haben und den Inhalt, können abgeleitet werden. So wie Daten können genutzt werden, um es zu verbessern oder die Benutzer Erfahrung zu verbessern das System und die Software.

Wenn du “Ich stimme zu” klickst, erlaubst du uns, die Cookies zu benutzen die Geräte Bezeichnung, den Web oder ähnliche Technologien zu benutzen. Deine Settings, können in deinem Gerät bei deinem Browser geändert werden.

Für den bestimmten Zweck, berechtigten Interessen beruhen darauf, mehr als auf den Inhalt. Du kannst mehr darüber in unseren Privaten und Cookie Politik lesen.